Time,TemperatureF,DewpointF,PressureIn,WindDirection,WindDirectionDegrees,WindSpeedMPH,WindSpeedGustMPH,Humidity,HourlyPrecipIn,Conditions,Clouds,dailyrainin,SoftwareType,DateUTC
2013-03-18 00:00:00,26.2,17.8,30.19,ENE,67,2.7,-999.0,70,-99.99,,,0.00,Acu-Link.com,2013-03-18 04:00:00,
2013-03-18 00:16:00,27.0,17.9,30.19,NE,45,4.7,-999.0,68,-99.99,,,0.00,Acu-Link.com,2013-03-18 04:16:00,
2013-03-18 00:31:00,27.0,17.9,30.19,ENE,67,2.2,-999.0,68,-99.99,,,0.00,Acu-Link.com,2013-03-18 04:31:00,
2013-03-18 01:01:00,25.9,17.2,30.18,ENE,67,2.2,-999.0,69,-99.99,,,0.00,Acu-Link.com,2013-03-18 05:01:00,
2013-03-18 01:16:00,25.5,16.8,30.19,NE,45,1.1,-999.0,69,-99.99,,,0.00,Acu-Link.com,2013-03-18 05:16:00,
2013-03-18 01:32:00,25.2,16.8,30.19,ENE,67,3.2,-999.0,70,-99.99,,,0.00,Acu-Link.com,2013-03-18 05:32:00,
2013-03-18 01:47:00,24.8,16.8,30.19,ENE,67,2.2,-999.0,71,-99.99,,,0.00,Acu-Link.com,2013-03-18 05:47:00,
2013-03-18 02:02:00,23.0,17.8,30.20,South,180,0.0,-999.0,80,-99.99,,,0.00,Acu-Link.com,2013-03-18 06:02:00,
2013-03-18 02:17:00,21.7,17.3,30.20,SSW,202,0.0,-999.0,83,-99.99,,,0.00,Acu-Link.com,2013-03-18 06:17:00,
2013-03-18 02:33:00,20.7,16.9,30.21,East,90,0.0,-999.0,85,-99.99,,,0.00,Acu-Link.com,2013-03-18 06:33:00,
2013-03-18 02:48:00,20.3,16.8,30.22,SSW,202,0.0,-999.0,86,-99.99,,,0.00,Acu-Link.com,2013-03-18 06:48:00,
2013-03-18 03:04:00,19.0,16.0,30.22,SSW,202,0.0,-999.0,88,-99.99,,,0.00,Acu-Link.com,2013-03-18 07:04:00,
2013-03-18 03:19:00,19.0,16.0,30.24,SE,135,0.0,-999.0,88,-99.99,,,0.00,Acu-Link.com,2013-03-18 07:19:00,
2013-03-18 03:34:00,19.4,16.7,30.23,South,180,0.0,-999.0,89,-99.99,,,0.00,Acu-Link.com,2013-03-18 07:34:00,
2013-03-18 03:50:00,18.3,15.6,30.23,SSE,157,0.0,-999.0,89,-99.99,,,0.00,Acu-Link.com,2013-03-18 07:50:00,
2013-03-18 04:05:00,18.7,16.3,30.22,SE,135,0.0,-999.0,90,-99.99,,,0.00,Acu-Link.com,2013-03-18 08:05:00,
2013-03-18 04:20:00,19.2,16.8,30.22,South,180,0.0,-999.0,90,-99.99,,,0.00,Acu-Link.com,2013-03-18 08:20:00,
2013-03-18 04:35:00,18.3,15.6,30.22,SW,225,0.0,-999.0,89,-99.99,,,0.00,Acu-Link.com,2013-03-18 08:35:00,
2013-03-18 04:50:00,18.7,16.3,30.23,SE,135,0.0,-999.0,90,-99.99,,,0.00,Acu-Link.com,2013-03-18 08:50:00,
2013-03-18 05:06:00,18.3,15.9,30.23,ESE,112,0.0,-999.0,90,-99.99,,,0.00,Acu-Link.com,2013-03-18 09:06:00,
2013-03-18 05:36:00,19.6,17.2,30.23,SSW,202,0.0,-999.0,90,-99.99,,,0.00,Acu-Link.com,2013-03-18 09:36:00,
2013-03-18 05:53:00,19.4,17.0,30.22,South,180,1.1,-999.0,90,-99.99,,,0.00,Acu-Link.com,2013-03-18 09:53:00,
2013-03-18 06:08:00,19.6,17.2,30.22,NNW,337,0.0,-999.0,90,-99.99,,,0.00,Acu-Link.com,2013-03-18 10:08:00,
2013-03-18 06:24:00,19.8,17.6,30.23,NE,45,0.0,-999.0,91,-99.99,,,0.00,Acu-Link.com,2013-03-18 10:24:00,
2013-03-18 07:22:00,23.7,15.4,30.21,ESE,112,2.7,-999.0,70,-99.99,,,0.00,Acu-Link.com,2013-03-18 11:22:00,
2013-03-18 08:20:00,25.3,15.2,30.21,ESE,112,2.7,-999.0,65,-99.99,,,0.00,Acu-Link.com,2013-03-18 12:20:00,
2013-03-18 09:42:00,28.6,15.7,30.18,East,90,2.2,-999.0,58,-99.99,,,0.00,Acu-Link.com,2013-03-18 13:42:00,
2013-03-18 10:00:00,30.0,15.8,30.18,East,90,3.7,-999.0,55,-99.99,,,0.00,Acu-Link.com,2013-03-18 14:00:00,
2013-03-18 10:16:00,30.2,15.2,30.18,SE,135,6.3,-999.0,53,-99.99,,,0.00,Acu-Link.com,2013-03-18 14:16:00,
2013-03-18 10:31:00,30.7,14.7,30.16,SSE,157,6.3,-999.0,51,-99.99,,,0.00,Acu-Link.com,2013-03-18 14:31:00,
2013-03-18 11:01:00,31.8,15.3,30.17,South,180,5.3,-999.0,50,-99.99,,,0.00,Acu-Link.com,2013-03-18 15:01:00,
2013-03-18 11:16:00,31.8,14.4,30.16,ESE,112,2.2,-999.0,48,-99.99,,,0.00,Acu-Link.com,2013-03-18 15:16:00,
2013-03-18 11:31:00,31.8,14.4,30.14,ESE,112,5.3,-999.0,48,-99.99,,,0.00,Acu-Link.com,2013-03-18 15:31:00,
2013-03-18 11:46:00,32.0,14.6,30.15,South,180,6.3,-999.0,48,-99.99,,,0.00,Acu-Link.com,2013-03-18 15:46:00,
2013-03-18 12:02:00,31.8,14.4,30.14,SW,225,5.8,-999.0,48,-99.99,,,0.00,Acu-Link.com,2013-03-18 16:02:00,
2013-03-18 12:17:00,31.8,15.8,30.12,ESE,112,5.8,-999.0,51,-99.99,,,0.00,Acu-Link.com,2013-03-18 16:17:00,
2013-03-18 12:32:00,30.2,19.5,30.13,South,180,6.3,-999.0,64,-99.99,,,0.00,Acu-Link.com,2013-03-18 16:32:00,
2013-03-18 12:48:00,30.2,21.3,30.12,SE,135,5.3,-999.0,69,-99.99,,,0.00,Acu-Link.com,2013-03-18 16:48:00,
2013-03-18 13:04:00,30.4,20.1,30.12,East,90,5.3,-999.0,65,-99.99,,,0.00,Acu-Link.com,2013-03-18 17:04:00,
2013-03-18 13:20:00,30.7,20.0,30.13,ESE,112,4.7,-999.0,64,-99.99,,,0.00,Acu-Link.com,2013-03-18 17:20:00,
2013-03-18 13:35:00,30.9,19.8,30.12,East,90,3.7,-999.0,63,-99.99,,,0.00,Acu-Link.com,2013-03-18 17:35:00,
2013-03-18 13:50:00,31.8,18.7,30.10,SSW,202,3.2,-999.0,58,-99.99,,,0.00,Acu-Link.com,2013-03-18 17:50:00,
2013-03-18 14:06:00,32.0,18.5,30.09,SSW,202,5.8,-999.0,57,-99.99,,,0.00,Acu-Link.com,2013-03-18 18:06:00,
2013-03-18 14:21:00,32.0,17.7,30.07,ESE,112,7.3,-999.0,55,-99.99,,,0.00,Acu-Link.com,2013-03-18 18:21:00,
2013-03-18 14:36:00,32.5,18.6,30.06,South,180,3.7,-999.0,56,-99.99,,,0.00,Acu-Link.com,2013-03-18 18:36:00,
2013-03-18 14:51:00,32.5,17.3,30.03,South,180,3.7,-999.0,53,-99.99,,,0.00,Acu-Link.com,2013-03-18 18:51:00,
2013-03-18 15:24:00,31.6,20.8,30.02,NNE,22,2.2,-999.0,64,-99.99,,,0.00,Acu-Link.com,2013-03-18 19:24:00,
2013-03-18 15:40:00,30.2,22.6,30.04,ENE,67,4.2,-999.0,73,-99.99,,,0.00,Acu-Link.com,2013-03-18 19:40:00,
2013-03-18 15:56:00,28.8,25.4,30.01,ESE,112,2.2,-999.0,87,-99.99,,,0.00,Acu-Link.com,2013-03-18 19:56:00,
2013-03-18 16:11:00,28.9,26.1,30.00,East,90,2.7,-999.0,89,-99.99,,,0.00,Acu-Link.com,2013-03-18 20:11:00,
2013-03-18 16:41:00,29.3,26.7,30.00,ESE,112,2.7,-999.0,90,-99.99,,,0.00,Acu-Link.com,2013-03-18 20:41:00,
2013-03-18 17:12:00,30.7,27.6,29.98,SSE,157,0.0,-999.0,88,-99.99,,,0.00,Acu-Link.com,2013-03-18 21:12:00,
2013-03-18 17:28:00,30.4,27.6,29.97,ESE,112,2.2,-999.0,89,-99.99,,,0.00,Acu-Link.com,2013-03-18 21:28:00,
2013-03-18 17:43:00,30.2,27.4,29.98,NE,45,2.2,-999.0,89,-99.99,,,0.00,Acu-Link.com,2013-03-18 21:43:00,
2013-03-18 17:58:00,30.2,27.4,29.96,ENE,67,1.1,-999.0,89,-99.99,,,0.00,Acu-Link.com,2013-03-18 21:58:00,
2013-03-18 18:13:00,30.4,27.8,29.95,ESE,112,0.0,-999.0,90,-99.99,,,0.00,Acu-Link.com,2013-03-18 22:13:00,
2013-03-18 18:29:00,30.4,27.8,29.95,ESE,112,2.2,-999.0,90,-99.99,,,0.00,Acu-Link.com,2013-03-18 22:29:00,
2013-03-18 18:44:00,30.2,27.6,29.93,ENE,67,3.2,-999.0,90,-99.99,,,0.00,Acu-Link.com,2013-03-18 22:44:00,
2013-03-18 18:59:00,30.2,27.9,29.93,East,90,0.0,-999.0,91,-99.99,,,0.00,Acu-Link.com,2013-03-18 22:59:00,
2013-03-18 19:15:00,30.0,28.0,29.93,East,90,1.7,-999.0,92,-99.99,,,0.00,Acu-Link.com,2013-03-18 23:15:00,
2013-03-18 19:30:00,30.0,28.0,29.92,East,90,3.2,-999.0,92,-99.99,,,0.00,Acu-Link.com,2013-03-18 23:30:00,
2013-03-18 19:46:00,30.0,28.0,29.94,SSW,202,3.7,-999.0,92,-99.99,,,0.00,Acu-Link.com,2013-03-18 23:46:00,
2013-03-18 20:16:00,30.0,27.7,29.93,SE,135,2.2,-999.0,91,-99.99,,,0.00,Acu-Link.com,2013-03-19 00:16:00,
2013-03-18 20:32:00,30.0,27.7,29.92,SW,225,2.2,-999.0,91,-99.99,,,0.00,Acu-Link.com,2013-03-19 00:32:00,
2013-03-18 20:47:00,29.8,27.8,29.92,SE,135,0.0,-999.0,92,-99.99,,,0.00,Acu-Link.com,2013-03-19 00:47:00,
2013-03-18 21:02:00,29.8,27.8,29.92,East,90,0.0,-999.0,92,-99.99,,,0.00,Acu-Link.com,2013-03-19 01:02:00,
2013-03-18 21:18:00,29.7,27.9,29.91,NE,45,0.0,-999.0,93,-99.99,,,0.00,Acu-Link.com,2013-03-19 01:18:00,
2013-03-18 21:33:00,29.5,27.7,29.91,West,270,0.0,-999.0,93,-99.99,,,0.00,Acu-Link.com,2013-03-19 01:33:00,
2013-03-18 21:48:00,29.5,28.0,29.90,NE,45,0.0,-999.0,94,-99.99,,,0.00,Acu-Link.com,2013-03-19 01:48:00,
2013-03-18 22:04:00,29.5,28.0,29.89,West,270,0.0,-999.0,94,-99.99,,,0.00,Acu-Link.com,2013-03-19 02:04:00,
2013-03-18 22:19:00,29.5,28.2,29.87,ENE,67,0.0,-999.0,95,-99.99,,,0.00,Acu-Link.com,2013-03-19 02:19:00,
2013-03-18 22:34:00,29.5,28.2,29.86,North,0,0.0,-999.0,95,-99.99,,,0.00,Acu-Link.com,2013-03-19 02:34:00,
2013-03-18 22:49:00,29.3,28.0,29.85,WNW,292,0.0,-999.0,95,-99.99,,,0.00,Acu-Link.com,2013-03-19 02:49:00,
2013-03-18 23:04:00,29.5,28.2,29.83,NNW,337,0.0,-999.0,95,-99.99,,,0.00,Acu-Link.com,2013-03-19 03:04:00,
2013-03-18 23:20:00,29.5,28.2,29.83,NNE,22,0.0,-999.0,95,-99.99,,,0.00,Acu-Link.com,2013-03-19 03:20:00,
2013-03-18 23:35:00,29.7,28.7,29.82,South,180,0.0,-999.0,96,-99.99,,,0.00,Acu-Link.com,2013-03-19 03:35:00,
2013-03-18 23:50:00,29.8,28.8,29.81,WNW,292,0.0,-999.0,96,-99.99,,,0.00,Acu-Link.com,2013-03-19 03:50:00,